Location: Alincthun
(50.7310°N, 1.8022°E)
Time: 23:25:44
(UTC+00:00)

Cosmos 2237 Rocket - Pass Details

Date: 17 February 2020
Orbit: 835 x 849 km, 71.0° (Epoch: 05 April)

Event Time Altitude Azimuth Distance (km) Brightness Sun altitude
Exits shadow 05:45:21 16° 294° (WNW) 2,077 3.7 -12.8°
Maximum altitude 05:47:42 20° 325° (NW) 1,856 3.6 -12.4°
Drops below altitude 10° 05:51:46 10° 11° (NNE) 2,459 4.7 -11.8°
Sets 05:54:55 0° 29° (NNE) 3,397 5.7 -11.3°
